Location: Gull Harbor
(47.1000°N, 122.9000°W)
Time: 00:45:22
(UTC-07:00)

BlueWalker 3 - Pass Details

Date: 30 January 2023
Orbit: 497 x 515 km, 53.2° (Epoch: 23 March)

Event Time Altitude Azimuth Distance (km) Brightness Sun altitude
Rises 19:38:55 0° 279° (W) 2,602 6.9 -25.2°
Reaches altitude 10° 19:41:15 10° 289° (WNW) 1,722 5.6 -25.6°
Enters shadow 19:43:56 30° 327° (NNW) 944 3.6 -26.1°
